Weather Roundup
Issued by NWS Chicago, IL

Home | Current Version | Previous Version | Graphics & Text | Print | Product List | Glossary On
Versions: 1 2 3 4 5 6 7 8 9 10 11 12 13 14 15 16 17 18 19 20 21 22 23 24 25 26 27 28 29 30 31 32 33 34 35 36 37 38 39 40 41 42 43 44 45 46 47 48 49 50
000
NZUS59 KLOT 022112
HRRLOT

CHICAGO AREA WEATHER ROUNDUP
NATIONAL WEATHER SERVICE CHICAGO/ROMEOVILLE IL
400 PM CDT SUN AUG 02 2015

NOTE: "FAIR" INDICATES FEW OR NO CLOUDS BELOW 12,000 FEET WITH NO
SIGNIFICANT WEATHER AND/OR OBSTRUCTIONS TO VISIBILITY.

* THESE STATIONS ARE NOT UNDER NWS QUALITY CONTROL. THEY ALSO MAY NOT
  REPORT WEATHER SUCH AS PRECIPITATION OR FOG.

ILZ005-006-012>014-019>023-022200-
NORTHEAST ILLINOIS

CITY           SKY/WX    TMP DP  RH WIND       PRES   REMARKS
OHARE          PTSUNNY   87  72  60 SW18G25   29.71F HX  93
MIDWAY         CLOUDY    91  69  48 SW17G26   29.72F HX  96
AURORA         MOSUNNY   90  70  51 SW17G30   29.74F HX  95
LANSING*       PTSUNNY   87  68  54 SW17G23   29.76F HX  90
JOLIET*        PTSUNNY   90  72  55 SW13G24   29.76F HX  96
WAUKEGAN       MOSUNNY   88  68  51 SW25G37   29.66F HX  91
DUPAGE AIRPORT PTSUNNY   88  71  57 SW22G29   29.73F HX  94
WHEELING       PTSUNNY   89  68  49 SW18G29   29.71F HX  93
KANKAKEE*      MOSUNNY   90  72  55 SW18G24   29.80F HX  97
MORRIS*        MOSUNNY   89  72  57 SW15G26   29.75F HX  96
LEWIS AIRPORT* PTSUNNY   89  68  49 SW21G32   29.75F HX  92
NORTHERLY IS     N/A     89  67  47 S14         N/A  HX  92
$$

WIZ051-052-058>065-066-070>072-022200-
SOUTHEAST WISCONSIN

CITY           SKY/WX    TMP DP  RH WIND       PRES   REMARKS
MILWAUKEE      MOSUNNY   92  63  38 SW31G44   29.59F HX  93
KENOSHA*       SUNNY     90  69  50 SW20G39   29.64F HX  94
RACINE*        SUNNY     91  66  43 SW31G47   29.62F HX  93
BURLINGTON     SUNNY     87  65  47 SW23G30   29.63F HX  89
WAUKESHA       SUNNY     88  64  45 SW22G31   29.61F HX  89
WEST BEND      SUNNY     88  63  42 SW25G36   29.55F HX  88
$$

INZ001>003-010>013-019-020-022200-
NORTHWEST INDIANA

CITY           SKY/WX    TMP DP  RH WIND       PRES   REMARKS
GARY*          PTSUNNY   88  68  51 SW17G33   29.77S HX  91
MICHIGAN CITY* NOT AVBL
RENSSELAER*    NOT AVBL
VALPARAISO     MOSUNNY   88  63  43 SW16G23   29.78F HX  89
$$

LMZ740>746-022200-
SOUTHERN LAKE MICHIGAN

STATION/POSITION TIME  SKY/WX   TEMP WIND        PRES    VSBY
                                AIR  DIR/SP/G
                 (UTC)          (F)  (DEG/KT/KT) (MB)    (MI)
HARRISON CRIB    2000            86  220/ 23/ 27   N/A
BURNHAM HARBOR   2100            88  210/ 21       N/A
CALUMET HARBOR   2000            88  220/  9/ 16   N/A
BURNS HARBOR     2020            88  220/ 23     1007.8F
MICHIGAN CITY    2000            88  190/ 26/ 31   N/A
$$

ABBREVIATIONS USED IN REMARKS
   TC - TEMPERATURE IN CELSIUS
  WCI - WIND CHILL INDEX
   HX - HEAT INDEX
  VSB - VISIBILITY
$$


USA.gov is the U.S. government's official web portal to all federal, state and local government web resources and services.